AirNav   BOSE ProFlight Aviation Headset
 
 345 users online  

23LA Warner-Thunder Hill Airport
Covington, Louisiana, USA

GOING TO COVINGTON?


FAA INFORMATION EFFECTIVE 21 JUNE 2018

Location

FAA Identifier: 23LA
Lat/Long: 30-37-50.9500N / 090-04-48.6900W
30-37.849167N / 090-04.811500W
30.6308194 / -90.0801917
(estimated)
Elevation: 185 ft. / 56 m (estimated)
Variation: 03E (1985)
From city: 9 miles N of COVINGTON, LA
Time zone: UTC -5 (UTC -6 during Standard Time)
Zip code: 70435

Airport Operations

Airport use: Private use. Permission required prior to landing
Activation date: 06/1980
Control tower: no
ARTCC: HOUSTON CENTER
FSS: DE RIDDER FLIGHT SERVICE STATION
Attendance: DAWN-DUSK
BY APPOINTMENT ONLY.
Wind indicator: yes
Segmented circle: no

Airport Communications

WX AWOS-3PT at BXA (16 nm NE): 118.025 (985-732-6224)
WX AWOS-3PT at HDC (19 nm W): 118.325 (985-277-5670)

Nearby radio navigation aids

VOR radial/distance  VOR name  Freq  Var
PCUr278/18.5PICAYUNE VOR/DME112.2005E
HMUr069/(18.7)HAMMOND VOR109.6000E

 
NDB name  Hdg/Dist  Freq  Var  ID
BOGALUSA217/18.835300WGVB --. ...- -...

Airport Services

Airframe service: MINOR

Runway Information

Runway 10/28

Dimensions: 1900 x 50 ft. / 579 x 15 m
Surface: turf
RUNWAY 10  RUNWAY 28
Traffic pattern: leftleft
Displaced threshold: no600 ft.
Obstructions: 50 ft. trees, 600 ft. from runway50 ft. pline, 300 ft. from runway

Airport Ownership and Management from official FAA records

Ownership: Privately-owned
Owner: RICHARD M WARNER
82341 HWY 1129
COVINGTON, LA 70433
Phone 985-892-3721
Manager: RICHARD M. WARNER
82341 HWY 1129
COVINGTON, LA 70433
Phone 985-892-3721

Airport Operational Statistics

Aircraft based on the field: 3
Single engine airplanes: 3
    

Instrument Procedures

There are no published instrument procedures at 23LA.

Some nearby airports with instrument procedures:

KBXA - George R Carr Memorial Air Field (16 nm NE)
KHDC - Hammond Northshore Regional Airport (19 nm W)
KASD - Slidell Airport (22 nm SE)
KMJD - Picayune Municipal Airport (24 nm E)
M13 - Poplarville-Pearl River County Airport (31 nm E)
 
Loc | Ops | Rwys | IFR | FBO | Links
Com | Nav | Svcs | Stats | Notes

AirNav Hotels Sweepstakes
 
Area around 23LA (Warner-Thunder Hill Airport)
 
Road maps at: MapQuest Bing Google
 
Aerial photo
No photo
 
Sectional chart

 
Airport distance calculator
Flying to Warner-Thunder Hill Airport? Find the distance to fly.

From to 23LA

Sunrise and sunset
Times for 21-Jun-2018
 Local
(UTC-5)
 Zulu
(UTC)
Morning civil twilight05:3110:31
Sunrise05:5910:59
Sunset20:0501:05
Evening civil twilight20:3301:33

Current date and time
Zulu (UTC)  21-Jun-2018 09:26:41
Local (UTC-5)  21-Jun-2018 04:26:41
 
METAR
KBXA 
16nm NE 
210920Z AUTO 00000KT 10SM CLR 26/23 A2992 RMK AO2 T02580233
KHDC 
19nm W 
210915Z AUTO 00000KT 5SM BR CLR 23/23 A2991 RMK AO2
KASD 
28nm SE 
210853Z AUTO 22004KT 10SM CLR 27/23 A2991 RMK AO2 SLP128 T02720233 55001 TSNO
TAF
KHDC 
19nm W 
210537Z 2106/2206 20003KT P6SM SKC FM211500 22005KT P6SM BKN030 PROB30 2115/2118 4SM TSRA OVC025CB FM220300 00000KT P6SM FEW060 SCT070
NOTAMs
Click for the latest NOTAMs
NOTAMs are issued by the DoD/FAA and will open in a separate window not controlled by AirNav.

 

 
 

Would you like to see your business listed on this page?

 If your business provides an interesting product or service to pilots, flight crews, aircraft, or users of the Warner-Thunder Hill Airport, you should consider listing it here.  To start the listing process, click on the button below
 
Add a business
 

Other Pages about Warner-Thunder Hill Airport

Update a link
 
Copyright © AirNav, LLC. All rights reserved. Privacy Policy  Contact